Home > Weather > Bloomington > Past weeks

Flag for USA Past Weather in Bloomington, Indiana, USA — Yesterday and Last 2 Weeks

Now
75 °F

Fog.


Feels Like: 74 °F
Forecast: 74 / 92 °F
Wind: No wind

Location: Monroe County Airport

Current Time: Jul 24, 2016 at 4:56:28 AM

Latest Report: Jul 24, 2016 at 3:53 AM


Visibility: 0 mi

Pressure: 29.95 "Hg

Humidity: 90%

Dew Point: 72 °F

Location of BloomingtonLocation

Past Weather in Bloomington — Graph

°F

Bloomington Temperature Yesterday

Maximum temperature yesterday: 90 °F (at 2:53 PM)
Minimum temperature yesterday: 70 °F (at 4:58 AM)
Average temperature yesterday: 79 °F

High & Low Weather Summary for the Past Weeks

 TemperatureHumidityPressure
High90 °F (Jul 13, 2:53 PM)97% (Jul 21, 6:53 AM)30.26 "Hg (Jul 21, 6:53 AM)
Low59 °F (Jul 10, 4:53 AM)48% (Jul 10, 2:53 PM)29.86 "Hg (Jul 13, 7:53 PM)
Average76 °F78%30.05 "Hg
* Reported Jul 9 3:53 AM — Jul 24 3:53 AM, Bloomington, Weather by CustomWeather, © 2016

Note: Actual official high and low records may vary slightly from our data, if they occured in-between our weather recording intervals... More about our weather records

Advertising

Bloomington Weather History for the Previous 24 Hours

Scroll right to see more
 ConditionsComfort  
Time TempWeatherWind HumidityBarometerVisibility
3:53 AM
Sun, Jul 24
75 °FFog.No wind90%29.95 "Hg1 mi
2:53 AM75 °FFog.No wind90%29.96 "Hg5 mi
1:53 AM75 °FFog.No wind94%29.98 "Hg5 mi
12:53 AM75 °FFog.No wind94%29.97 "Hg5 mi
11:53 PM
Sat, Jul 23
77 °FFog.No wind90%29.96 "Hg6 mi
10:53 PM77 °FFog.No wind90%29.98 "Hg5 mi
9:53 PM79 °FSunny.No wind88%29.96 "Hg7 mi
8:53 PM82 °FSunny.No wind85%29.93 "Hg10 mi
7:53 PM87 °FSunny.No wind72%29.92 "Hg10 mi
6:53 PM88 °FPassing clouds.3 mph65%29.93 "Hg10 mi
5:53 PM87 °FPassing clouds.No wind72%29.94 "Hg10 mi
4:53 PM90 °FPartly sunny.No wind57%29.96 "Hg10 mi
3:53 PM90 °FPartly sunny.3 mph61%29.98 "Hg10 mi
2:53 PM90 °FPassing clouds.3 mph54%29.98 "Hg10 mi
1:53 PM87 °FScattered clouds.3 mph61%29.99 "Hg10 mi
12:53 PM87 °FScattered clouds.3 mph63%29.99 "Hg10 mi
11:53 AM84 °FScattered clouds.5 mph70%30.00 "Hg10 mi
10:53 AM81 °FPassing clouds.6 mph79%30.01 "Hg10 mi
10:00 AM77 °FLow clouds.No wind94%30.04 "Hg8 mi
8:53 AM75 °FFog.6 mph94%30.01 "Hg0 mi
7:53 AM73 °FFog.No wind97%30.00 "Hg0 mi
6:53 AM71 °FFog.No wind93%29.99 "Hg0 mi
6:03 AM70 °FFog.No wind93%30.02 "Hg1 mi
6:01 AM70 °FFog.No wind93%30.02 "Hg0 mi
4:58 AM70 °FFog.No wind93%30.01 "Hg0 mi
Weather by CustomWeather, © 2016

See weather overviewHow to use our weather pages